Regional Weather Roundup
Issued by NWS

Home | Current Version | Previous Version | Text Only | Print | Product List | Glossary On
Versions: 1 2 3 4 5 6 7 8 9 10 11 12 13 14 15 16 17 18 19 20 21 22 23 24 25 26 27 28 29 30 31 32 33 34 35 36 37 38 39 40 41 42 43 44 45 46 47 48 49 50
000
ASUS43 KBIS 221802
RWRND

NORTH DAKOTA REGIONAL WEATHER ROUNDUP
NATIONAL WEATHER SERVICE BISMARCK ND
100 PM CDT MON MAY 22 2017

NOTE: "FAIR" INDICATES FEW OR NO CLOUDS BELOW 12,000 FEET WITH NO
SIGNIFICANT WEATHER AND/OR OBSTRUCTIONS TO VISIBILITY.


NDZ001>003-009>011-017-221900-
NORTHWEST NORTH DAKOTA

CITY           SKY/WX    TMP DP  RH WIND       PRES   REMARKS
WILLISTON      PTSUNNY   62  36  37 NE9       30.05S
6HR MIN TEMP:  49; 6HR MAX TEMP:  66; 6HR PCP:  0.01;

MINOT          CLOUDY    59  37  44 N18G28    29.99S
MINOT AFB      LGT RAIN  56  40  55 N15G22    29.99S
$$

NDZ018>021-031>035-040>046-221900-
SOUTHWEST NORTH DAKOTA

CITY           SKY/WX    TMP DP  RH WIND       PRES   REMARKS
BISMARCK       CLOUDY    61  34  36 N14G23    29.97S
6HR MIN TEMP:  45; 6HR MAX TEMP:  63;

DICKINSON      CLOUDY    57  33  40 N14       30.00R
GARRISON         N/A     58  35  42 N15G28    29.99R
6HR MIN TEMP:  45; 6HR MAX TEMP:  59;

HETTINGER ARPT MOSUNNY   59  39  47 N17G26    30.01S
$$

NDZ004>008-012>016-024-026-027-054-221900-
NORTHEAST NORTH DAKOTA

CITY           SKY/WX    TMP DP  RH WIND       PRES   REMARKS
GRAND FORKS    CLOUDY    54  45  71 N16       29.85S
GRND FRKS AFB  PTSUNNY   53  42  67 N20G25    29.86R
DEVILS LAKE    CLOUDY    52  39  61 N18       29.91F
$$

NDZ022-023-025-028>030-036>039-047>053-221900-
SOUTHEAST NORTH DAKOTA

CITY           SKY/WX    TMP DP  RH WIND       PRES   REMARKS
FARGO          PTSUNNY   57  41  55 NW17G28   29.85R
6HR MIN TEMP:  46; 6HR MAX TEMP:  60;

JAMESTOWN      PTSUNNY   59  41  51 N16G23    29.89S
$$




USA.gov is the U.S. government's official web portal to all federal, state and local government web resources and services.